Weather History for Skagway, AK

Change the Weather History Date:

Saturday, September 29, 2012

  Actual Average Record
Temperature  
Mean Temperature 49 °F -  
Max Temperature 51 °F 50 °F 66 °F (2003)
Min Temperature 46 °F 40 °F 27 °F (1971)
Degree Days  
Heating Degree Days 16    
Moisture  
Dew Point 39 °F    
Average Humidity 70    
Maximum Humidity 80    
Minimum Humidity 61    
Precipitation  
Precipitation 0.00 in - - ()
Sea Level Pressure  
Sea Level Pressure 29.86 in    
Wind  
Wind Speed 14 mph (SSW)    
Max Wind Speed 25 mph    
Max Gust Speed 33 mph    
Visibility 10 miles    
Events Rain    
Averages and records for this station are not official NWS values.
T = Trace of Precipitation, MM = Missing Value Source: NWS Daily Summary

Daily Weather History Graph

Daily Weather History Graph

Search for Another Location

Airport:

Trip Planner

Search our weather history database for the weather conditions in past years. The results will help you decide how hot, cold, wet, or windy it might be!

Date:

Astronomy

Sep. 29, 2012 Rise Set
Actual Time 7:03 AM AKDT 6:38 PM AKDT
Civil Twilight 6:22 AM AKDT 7:18 PM AKDT
Nautical Twilight 5:34 AM AKDT 8:06 PM AKDT
Astronomical Twilight 4:43 AM AKDT 8:56 PM AKDT
Moon 6:00 PM AKDT (9/29) 6:49 AM AKDT (9/29)
Length of Visible Light 12h 56m
Length of Day
11h 34m
Full, 100% of the Moon is Illuminated
Sep 29
Full
Sep 29
Full
Oct 7
Last Quarter
Oct 15
New
Oct 21
First Quarter

Hourly Weather History & Observations

Time (AKDT) Temp. Dew Point Humidity Pressure Visibility Wind Dir Wind Speed Gust Speed Precip Events Conditions
12:53 AM 48.9 °F 41.0 °F 74% 29.80 in 10.0 mi SSW 16.1 mph 24.2 mph N/A   Overcast
1:53 AM 48.9 °F 39.9 °F 71% 29.80 in 10.0 mi SSW 15.0 mph 24.2 mph N/A   Overcast
2:53 AM 48.9 °F 39.9 °F 71% 29.81 in 10.0 mi SSW 12.7 mph - N/A   Overcast
3:53 AM 48.9 °F 41.0 °F 74% 29.81 in 10.0 mi SSW 13.8 mph 23.0 mph N/A   Overcast
4:53 AM 48.0 °F 42.1 °F 80% 29.81 in 10.0 mi SSW 18.4 mph 24.2 mph N/A   Overcast
5:53 AM 48.9 °F 41.0 °F 74% 29.82 in 10.0 mi South 10.4 mph - N/A   Overcast
6:53 AM 48.9 °F 39.9 °F 71% 29.82 in 10.0 mi South 10.4 mph 20.7 mph 0.00 in Rain Light Rain
7:53 AM 48.9 °F 39.0 °F 69% 29.82 in 10.0 mi South 10.4 mph - 0.00 in   Overcast
8:53 AM 50.0 °F 39.9 °F 68% 29.84 in 10.0 mi Variable 4.6 mph - N/A   Overcast
9:53 AM 48.9 °F 41.0 °F 74% 29.84 in 10.0 mi SSW 21.9 mph 28.8 mph N/A   Overcast
10:53 AM 48.0 °F 41.0 °F 77% 29.86 in 10.0 mi SSW 16.1 mph 31.1 mph 0.00 in Rain Light Rain
11:53 AM 50.0 °F 41.0 °F 71% 29.86 in 10.0 mi SSW 16.1 mph - 0.00 in   Mostly Cloudy
12:53 PM 48.9 °F 41.0 °F 74% 29.88 in 10.0 mi SSW 25.3 mph 33.4 mph N/A   Overcast
1:53 PM 50.0 °F 39.0 °F 66% 29.88 in 10.0 mi SSW 13.8 mph - 0.00 in   Scattered Clouds
2:53 PM 50.0 °F 37.9 °F 63% 29.88 in 10.0 mi South 13.8 mph 23.0 mph N/A   Clear
3:53 PM 48.0 °F 41.0 °F 77% 29.88 in 10.0 mi SSW 23.0 mph 32.2 mph N/A   Partly Cloudy
4:53 PM 50.0 °F 39.0 °F 66% 29.88 in 10.0 mi SSW 13.8 mph - N/A   Clear
5:53 PM 50.0 °F 37.0 °F 61% 29.89 in 10.0 mi SSW 10.4 mph - N/A   Clear
6:53 PM 48.9 °F 36.0 °F 61% 29.90 in 10.0 mi SSW 10.4 mph 16.1 mph N/A   Scattered Clouds
7:53 PM 48.0 °F 37.0 °F 66% 29.91 in 10.0 mi SSW 10.4 mph - N/A   Mostly Cloudy
8:53 PM 48.0 °F 37.0 °F 66% 29.91 in 10.0 mi SSW 12.7 mph - N/A   Mostly Cloudy
9:53 PM 48.0 °F 37.0 °F 66% 29.93 in 10.0 mi SSW 11.5 mph - N/A   Mostly Cloudy
10:53 PM 48.0 °F 37.0 °F 66% 29.94 in 10.0 mi SSW 12.7 mph - N/A   Mostly Cloudy
11:53 PM 46.9 °F 37.9 °F 71% 29.95 in 10.0 mi SSW 11.5 mph 20.7 mph N/A   Overcast